Wind_Speed
30 30 30 29 29 29 29 30 31 32 33 33 34 35 36 36 34 32 29 28 27 26 25 24 23 23 23 24 25 27 29 31 32 33 32 31 32 32 31 32 34 35 34 33 32 32 31 30 30 29 30 31 32 32 32 33 33 33 34 33 33 34 34 34 35 37 38 39 38 38 38 39 38 36 34 34 34 33 33 33 31 30 29 28 26
31 31 31 30 30 30 30 31 32 33 33 33 33 33 33 33 31 30 29 28 28 28 27 27 25 24 23 23 24 26 27 29 31 32 32 32 32 32 33 34 35 36 35 34 34 34 33 32 31 31 31 33 34 35 35 35 36 36 36 35 36 36 35 36 37 38 39 39 39 38 38 38 38 36 35 35 35 34 34 33 32 31 30 29 28
32 32 32 31 31 31 32 32 33 33 33 33 32 31 31 30 29 29 30 30 30 30 30 30 29 27 26 25 25 26 28 29 30 31 32 32 33 35 36 35 36 37 36 35 35 34 33 32 32 32 32 34 35 36 37 38 38 38 38 38 38 38 38 38 38 39 39 40 39 38 37 38 38 38 36 36 36 36 36 35 34 33 33 32 31
34 34 34 33 33 33 33 34 34 34 34 34 34 32 30 29 29 30 32 32 33 33 32 32 31 31 30 29 28 28 30 32 33 33 34 36 38 39 39 38 38 38 37 34 33 33 33 32 33 33 34 35 36 38 39 40 41 42 41 41 41 41 41 40 40 40 40 40 40 38 37 39 40 39 38 37 37 37 37 36 35 34 34 33 33
34 35 35 35 35 34 35 35 35 35 35 35 35 35 33 32 32 33 34 35 35 35 35 34 34 34 33 31 31 32 34 36 37 39 40 41 42 42 42 41 41 41 41 39 36 34 33 33 35 37 37 38 39 41 43 43 43 43 43 43 42 41 41 41 41 42 42 41 40 40 41 43 43 41 39 38 38 38 38 37 35 35 35 34 34
33 35 36 37 37 37 37 37 37 38 38 37 37 37 37 36 36 37 38 38 39 39 38 38 38 37 36 35 36 37 39 40 40 42 43 43 43 43 44 43 42 43 44 44 43 41 39 39 40 41 41 41 43 44 46 46 46 45 45 44 44 43 42 43 43 43 42 42 42 43 44 45 44 43 41 39 39 39 39 38 37 36 36 35 35
33 34 35 37 39 39 39 39 39 39 40 40 39 40 40 40 40 40 41 41 41 42 42 42 41 41 41 41 42 43 44 44 44 44 45 45 44 45 46 45 45 46 47 48 48 47 47 46 45 45 44 44 45 46 48 49 50 50 49 48 48 47 46 46 46 46 45 44 45 45 45 45 45 43 42 41 40 40 40 40 39 38 37 37 37
35 35 35 37 39 41 41 41 42 41 41 42 42 42 42 43 44 44 45 45 45 45 45 45 45 44 45 47 48 48 47 46 45 43 43 43 44 46 47 48 49 50 51 51 52 52 51 51 49 48 48 47 47 49 50 52 53 53 53 53 52 51 49 48 48 47 47 47 47 48 48 47 45 43 43 42 41 41 41 41 41 39 39 40 39
37 37 37 38 40 41 42 43 43 43 43 44 44 44 44 45 46 47 48 48 49 49 49 49 48 48 48 50 50 50 48 46 44 43 42 43 44 45 46 49 52 54 55 55 55 56 55 54 53 52 52 51 51 52 53 55 56 56 57 56 55 54 53 51 50 49 48 48 49 49 50 48 45 43 43 43 43 44 44 43 42 42 42 42 41
38 39 40 40 41 42 43 44 44 45 45 45 46 46 47 47 48 49 50 51 51 52 52 51 50 50 50 51 50 49 48 46 45 44 45 46 48 48 49 51 53 56 58 58 58 58 58 58 57 56 56 55 56 57 58 59 59 59 59 58 58 57 56 55 53 52 50 50 50 50 50 49 46 45 43 43 43 46 47 46 45 45 45 44 43
41 41 41 42 43 44 44 45 46 46 47 47 47 48 49 49 50 50 51 52 53 53 52 51 49 49 50 50 50 49 48 48 48 49 50 53 54 55 54 54 55 56 57 58 59 60 60 61 60 60 60 60 61 62 63 63 63 63 62 61 60 60 59 58 56 54 53 52 51 51 51 50 49 47 46 44 44 46 49 49 49 49 48 46 45
42 43 43 44 44 45 45 46 47 47 48 49 49 50 50 51 51 51 52 53 53 53 52 51 49 49 51 52 52 52 52 52 53 54 56 58 60 60 58 57 57 58 59 59 60 61 62 63 63 63 64 64 66 67 67 67 67 66 65 64 63 62 61 60 59 57 56 55 53 52 52 52 51 50 50 50 48 48 50 52 52 51 48 45 43
41 42 44 45 46 46 46 47 47 48 49 49 50 50 51 51 52 52 53 54 54 55 54 53 52 52 54 55 56 57 58 58 59 59 60 62 62 63 62 61 61 61 62 63 62 62 63 64 65 66 67 68 69 70 70 70 70 70 69 68 66 65 63 63 61 60 59 57 57 55 54 53 53 53 53 53 53 52 52 52 52 50 47 43 40
44 44 44 45 46 47 48 49 49 49 50 51 51 51 51 52 52 53 54 55 56 57 57 57 57 57 58 59 60 61 62 63 63 64 64 64 65 65 65 65 64 64 65 66 66 65 65 66 67 68 69 70 72 72 73 73 73 73 72 70 69 67 65 64 63 62 61 60 59 58 56 55 54 54 54 54 54 52 52 51 51 50 48 43 40
47 47 47 47 48 48 49 50 51 52 53 54 55 55 56 56 57 57 58 59 60 61 62 63 63 62 62 64 65 66 67 68 69 69 69 69 68 68 68 68 67 67 68 69 69 69 69 70 70 71 72 73 74 75 76 77 76 75 74 72 71 69 67 66 65 64 62 61 61 59 58 57 56 56 55 55 54 53 52 50 50 50 49 45 43
47 48 49 50 50 51 51 51 52 53 54 55 56 57 58 59 59 60 61 62 63 64 65 66 66 66 66 67 68 70 71 71 72 72 72 72 71 71 71 71 71 70 71 71 72 73 74 74 74 75 76 77 78 79 79 79 78 77 75 74 72 71 69 67 66 65 64 62 61 60 59 58 58 58 57 56 55 53 51 50 49 49 50 49 47
46 47 48 49 50 50 51 51 52 52 53 53 54 54 55 56 57 58 59 60 62 63 64 65 65 66 66 66 67 69 71 73 73 73 74 74 74 74 74 74 74 74 74 75 75 76 77 78 78 79 80 81 81 81 81 80 79 78 76 75 74 73 71 69 67 66 65 64 63 61 60 59 59 59 59 57 56 54 52 51 50 50 51 52 52
45 45 46 47 48 49 49 50 51 52 53 53 54 55 55 56 57 58 59 60 61 62 63 64 64 65 65 66 66 68 70 73 74 75 75 76 76 76 76 77 77 77 77 78 78 79 80 81 81 82 82 83 82 82 81 80 79 77 77 76 75 74 72 71 69 68 67 66 64 63 61 60 60 60 60 59 58 57 56 55 54 53 52 53 54
44 45 45 45 46 46 48 49 50 51 52 53 54 55 56 57 59 60 61 62 63 64 65 66 67 67 67 68 68 69 70 73 75 76 77 78 78 78 78 79 79 80 80 80 81 82 82 83 83 83 83 83 82 81 80 80 78 77 76 76 74 73 73 72 71 70 69 67 66 64 63 62 61 61 61 60 60 59 59 58 57 56 55 54 54
45 45 45 46 46 46 47 48 49 50 51 52 53 54 55 57 58 59 60 61 63 64 65 66 68 68 69 70 70 71 72 73 74 76 77 79 79 79 79 80 80 81 81 81 82 82 83 83 83 83 82 82 81 80 79 79 78 76 75 74 73 72 72 71 71 70 70 69 68 66 65 64 63 63 63 62 61 61 60 60 59 58 57 57 56
45 46 47 48 48 49 50 51 52 52 53 54 55 56 57 58 59 60 61 62 63 64 65 66 68 69 70 70 71 72 73 74 74 75 76 78 79 79 79 80 81 81 81 81 81 81 81 82 82 81 81 80 79 78 78 77 76 75 74 73 71 70 70 70 70 69 69 69 69 68 68 67 66 65 65 65 64 63 62 62 61 60 60 60 59
47 47 48 50 51 52 53 54 54 55 55 56 57 58 59 60 61 62 63 64 65 66 67 68 69 71 72 72 73 74 74 74 74 74 75 77 79 79 80 81 81 81 81 80 80 80 80 80 80 80 79 79 78 77 77 76 75 74 73 72 71 70 69 69 69 68 69 69 69 69 68 68 68 68 68 68 67 66 65 65 64 63 63 63 63
48 48 50 51 52 53 54 54 55 55 56 57 58 59 59 60 61 62 63 64 66 67 68 70 71 72 73 74 75 75 76 76 76 75 76 77 79 79 81 82 81 82 82 81 81 80 80 80 79 79 78 78 78 77 76 75 74 73 72 71 70 70 69 68 68 68 68 69 68 68 68 68 68 68 69 69 70 70 69 69 68 67 66 66 65
48 49 50 51 52 53 54 54 54 55 56 57 57 58 58 58 59 60 61 62 63 65 66 67 68 69 70 71 71 72 72 72 73 72 72 73 74 75 77 78 78 79 80 80 80 80 80 80 79 79 78 78 77 77 76 75 74 73 72 71 71 70 70 70 70 69 69 69 69 68 68 68 68 68 68 68 69 70 71 71 71 70 70 69 69
49 50 51 52 52 52 53 53 52 53 54 55 55 55 55 55 55 56 57 58 59 60 61 62 63 63 64 64 65 65 65 65 65 65 64 65 65 65 69 71 71 72 74 75 76 76 77 78 79 79 79 78 78 77 77 76 76 75 75 74 73 73 72 72 72 72 71 70 69 69 69 68 68 68 68 68 68 69 70 71 71 71 71 71 71
48 49 50 50 50 51 51 51 51 52 53 52 52 52 52 52 53 53 54 55 56 57 57 58 59 59 60 60 60 61 61 61 60 59 59 60 60 60 64 66 65 66 68 68 69 70 70 72 73 75 76 76 76 77 77 77 77 77 76 76 75 75 75 75 74 74 73 72 71 70 70 70 69 69 68 68 68 69 69 70 70 71 71 71 71
47 48 49 48 48 49 49 49 49 50 51 51 51 51 51 51 52 52 53 54 54 55 56 57 57 58 58 58 58 58 58 58 57 56 56 58 58 58 61 63 62 61 62 62 63 63 64 65 66 67 69 70 71 72 73 74 75 76 76 76 76 76 75 75 74 74 73 72 72 71 71 70 70 69 69 68 68 69 69 70 70 71 71 71 71
45 46 47 47 47 47 47 47 48 49 49 49 50 50 50 51 51 51 52 52 53 54 55 55 55 55 55 55 54 54 54 54 54 53 53 54 55 55 57 59 59 57 56 56 57 58 59 60 60 61 62 63 64 65 66 68 70 71 72 73 73 74 74 74 74 73 73 72 72 71 71 70 69 69 68 68 67 68 68 68 69 69 70 70 70
43 44 45 45 45 45 46 47 47 48 48 48 48 48 49 49 49 49 49 50 51 52 52 52 51 51 50 50 49 49 49 49 49 49 49 49 50 50 51 52 53 52 51 51 52 53 53 54 54 55 55 56 57 58 59 61 62 64 65 66 68 69 70 70 71 71 71 71 71 70 70 70 69 69 68 68 67 67 67 67 67 67 67 67 68
41 42 43 43 44 45 46 47 48 48 47 46 45 46 46 46 45 44 45 46 48 48 48 47 47 46 46 45 44 43 43 43 44 43 44 44 43 43 43 44 45 46 45 45 46 47 47 48 49 50 50 51 51 53 54 55 56 57 58 59 61 62 63 64 65 66 67 67 68 68 68 68 68 68 68 68 68 68 68 67 67 68 68 68 67
40 42 43 45 46 47 48 48 48 46 44 42 42 42 42 41 40 41 42 44 45 45 45 44 43 42 41 40 38 37 37 38 38 38 38 38 38 37 38 38 39 40 40 40 41 42 43 43 44 45 46 47 48 49 50 51 52 53 54 54 55 56 57 58 59 60 61 61 62 62 63 63 64 64 65 65 65 66 66 66 66 66 66 66 66
41 44 45 46 47 47 47 46 43 41 39 39 38 38 37 37 38 40 41 43 43 42 41 40 39 37 36 35 33 33 32 33 33 33 33 33 33 33 34 34 35 36 36 36 37 38 39 40 41 42 43 44 44 45 46 47 48 48 49 49 50 51 51 52 53 54 54 55 55 56 57 57 58 59 59 60 60 61 61 61 61 61 61 61 62
42 44 44 44 44 43 41 39 37 36 35 35 34 34 35 36 38 39 40 41 40 39 37 36 34 33 31 30 29 28 27 28 28 28 28 28 29 29 30 30 30 31 31 32 33 34 35 35 36 37 38 38 39 40 41 41 41 42 42 43 43 44 45 46 46 47 48 49 50 51 51 52 53 54 54 55 55 56 56 56 56 57 57 57 56
42 41 39 38 37 36 34 33 33 32 32 31 32 33 35 37 38 39 39 38 37 35 33 32 30 28 27 26 24 23 23 23 24 24 25 25 26 26 26 26 27 27 27 28 28 29 30 30 31 32 33 33 34 35 35 36 36 37 37 38 38 39 40 41 41 42 43 44 45 46 46 47 48 48 49 50 50 50 50 51 51 51 52 52 52
38 36 34 32 31 30 30 29 29 29 29 30 32 33 35 36 37 37 36 34 33 31 29 28 26 24 23 21 20 20 20 21 21 22 22 22 23 23 23 23 23 23 23 23 24 25 26 26 27 28 28 29 30 30 31 31 32 32 32 33 34 34 35 35 36 36 37 38 39 39 40 40 41 41 42 42 43 42 43 43 44 44 45 45 45
35 33 30 28 27 27 26 26 26 27 29 30 31 33 35 35 35 34 32 31 29 27 25 24 22 20 19 18 18 18 18 18 18 18 18 18 18 18 18 19 19 19 19 19 20 21 21 22 22 22 23 23 23 24 24 25 25 26 26 27 28 28 28 29 30 31 32 32 33 33 34 34 35 35 36 36 36 36 36 36 36 37 37 38 38
32 29 26 24 24 24 23 24 26 28 29 30 31 33 34 33 32 30 29 27 25 23 22 20 19 17 16 16 15 15 14 13 13 13 14 14 14 14 14 14 14 14 14 14 15 15 15 16 16 16 17 17 18 18 19 20 21 21 22 23 24 24 25 26 27 28 29 29 30 31 31 31 32 32 33 33 33 32 32 32 32 32 32 32 32
29 25 23 22 22 22 23 24 26 27 28 30 31 32 31 30 29 27 25 24 22 20 19 17 16 15 14 14 13 11 10 10 10 10 10 11 11 11 11 11 10 10 10 10 11 11 12 12 13 13 14 14 15 16 16 17 18 18 19 20 21 21 21 23 24 25 25 26 27 28 28 29 29 30 30 31 31 31 30 30 30 29 29 29 29
26 23 21 21 22 22 23 24 25 26 27 29 30 30 29 27 26 24 22 21 19 18 16 15 14 13 13 12 11 10 9 9 8 8 8 8 8 8 8 8 8 8 8 8 9 9 10 10 11 11 11 12 12 13 14 14 15 15 16 17 18 18 18 19 20 21 21 22 24 24 24 25 25 26 27 28 28 28 29 28 28 27 27 27 27
25 21 19 20 21 22 23 23 24 25 27 28 29 28 27 25 23 21 20 18 17 15 14 13 12 12 11 11 10 9 9 9 9 9 8 8 8 8 8 7 7 6 6 6 7 7 8 8 8 9 9 9 10 10 10 11 11 12 13 14 15 15 15 16 17 18 18 19 20 21 21 21 22 22 23 24 25 25 25 25 25 25 25 25 25
23 20 18 19 21 21 22 22 23 24 26 27 27 27 25 23 21 19 17 16 15 13 12 12 11 11 11 10 10 9 9 9 8 8 7 6 6 5 5 5 5 5 5 5 5 5 5 6 6 7 7 7 8 8 8 8 9 10 11 12 13 13 14 14 16 17 17 18 18 19 19 19 19 19 20 21 22 22 22 23 23 22 22 23 23
21 18 17 19 20 20 21 21 22 24 25 26 26 25 23 21 19 17 16 14 13 12 11 11 11 11 10 10 9 9 8 7 6 5 3 2 2 3 3 4 4 5 5 5 5 5 5 5 6 6 6 7 7 7 8 7 7 8 9 10 11 12 12 13 14 15 16 17 18 18 18 18 17 17 17 18 19 20 20 20 21 21 21 21 21
19 17 16 18 19 19 20 20 21 23 24 25 25 24 22 19 18 16 14 13 11 10 10 10 10 11 10 9 7 6 4 3 1 0 1 2 3 3 4 4 5 6 7 7 7 7 7 7 7 7 8 8 9 9 9 9 9 9 9 10 10 11 11 12 12 13 14 15 16 17 17 17 17 17 16 16 17 18 18 18 18 19 19 19 20
17 16 16 17 18 18 19 19 20 22 23 24 24 23 20 18 16 15 13 11 10 9 9 9 10 9 8 6 4 2 1 1 2 3 4 4 4 5 6 7 8 8 9 9 9 9 9 9 9 9 10 10 11 11 12 12 12 12 11 11 12 12 12 12 12 13 13 14 15 15 15 16 16 16 16 16 16 16 16 17 17 17 17 17 18
16 15 15 16 17 17 17 17 18 20 22 23 23 22 19 17 15 13 11 10 8 7 7 7 7 6 5 3 2 3 3 4 4 5 5 6 6 7 8 9 9 10 10 10 11 11 11 11 11 12 12 12 13 13 14 14 14 14 14 13 13 13 13 14 14 14 14 13 13 12 12 13 13 14 14 15 15 15 15 15 15 16 15 15 15
16 15 15 15 16 16 16 15 16 19 20 22 22 21 18 16 14 12 11 9 7 5 5 5 4 3 3 3 4 5 5 6 6 6 7 8 8 9 9 9 9 10 10 10 11 11 11 12 12 12 13 13 14 14 15 15 15 16 15 15 14 14 15 15 15 15 15 14 12 10 10 10 10 11 11 12 13 14 13 13 13 14 14 13 13
16 15 15 14 14 14 14 13 14 17 19 20 21 20 18 15 13 11 9 8 6 4 3 2 2 2 2 3 5 6 6 7 7 8 9 9 9 10 9 9 10 10 10 10 10 10 11 11 11 12 12 12 13 14 15 15 16 16 16 16 15 15 15 16 16 16 16 16 14 12 10 9 8 8 9 10 11 11 11 11 11 11 11 11 11
15 14 14 14 13 12 12 11 12 15 17 19 20 19 17 15 12 10 8 7 5 3 2 1 1 2 2 3 5 6 7 8 9 10 10 10 10 10 10 10 10 10 9 9 9 9 10 10 10 11 11 12 13 14 15 16 16 16 17 17 17 17 16 16 17 17 17 17 16 14 13 12 11 9 8 8 8 8 9 10 10 10 10 10 9
15 14 13 13 12 11 10 10 11 13 15 17 19 19 16 14 12 9 7 5 4 2 1 3 3 3 3 4 5 6 8 9 10 10 10 10 11 11 11 11 11 10 9 8 8 8 8 9 10 10 11 12 13 15 16 16 16 17 17 17 18 18 18 18 18 18 18 18 17 16 15 15 14 12 10 9 8 7 8 8 9 9 9 9 8
13 13 12 12 11 10 9 9 10 11 12 14 16 17 16 13 11 8 6 3 2 1 2 4 5 4 4 4 5 7 9 9 9 9 10 10 11 11 11 11 10 10 9 9 9 8 8 9 9 10 11 12 13 15 16 16 16 16 17 18 19 19 19 19 19 19 18 18 17 17 16 16 15 13 12 10 9 8 8 8 8 8 8 8 8
12 11 11 10 10 10 9 9 9 9 10 11 13 15 15 13 10 8 5 3 2 1 3 5 6 6 6 6 7 8 8 7 7 8 9 9 10 10 10 10 10 10 10 10 10 10 10 10 10 10 11 12 13 14 16 16 15 16 17 18 19 20 20 20 20 20 19 18 18 17 17 16 15 14 12 11 9 8 8 8 8 8 8 8 8
Wind_Direction
239 238 237 237 238 240 240 241 242 242 244 246 249 253 255 255 253 249 244 243 244 244 246 250 253 257 261 264 265 267 270 273 273 271 267 262 258 258 263 270 273 271 268 266 266 265 267 273 279 285 290 293 294 294 294 295 296 296 295 295 295 294 293 292 293 293 292 289 287 287 287 288 289 290 292 294 294 296 301 304 306 307 308 307 305
244 242 240 238 237 239 241 243 244 245 247 249 252 256 255 253 248 243 241 243 245 246 248 250 253 257 262 267 268 270 272 274 271 267 262 258 258 262 271 276 274 269 266 265 266 266 269 274 279 282 286 289 291 292 292 291 292 292 292 293 293 293 291 290 290 291 291 290 289 288 288 288 289 289 290 290 290 292 295 298 300 301 303 304 304
250 248 246 243 240 239 241 243 246 249 250 251 254 256 252 248 243 241 242 243 245 249 251 253 255 259 264 269 271 272 271 270 267 262 260 260 263 269 273 274 270 268 268 269 270 270 271 276 279 280 283 287 288 288 289 289 289 290 290 291 292 292 291 290 289 290 290 290 290 289 287 287 287 287 287 286 286 287 291 294 296 297 300 301 302
253 252 251 249 247 244 244 244 246 249 250 251 253 251 245 243 242 242 244 245 247 251 253 255 258 262 266 269 271 272 271 269 266 263 263 265 267 270 271 271 270 271 272 271 271 272 274 276 276 276 278 281 283 285 287 288 288 288 289 289 290 291 291 289 288 288 289 290 290 287 285 284 284 284 284 284 284 285 288 292 294 296 298 299 300
254 254 254 253 253 251 249 248 249 249 249 248 249 246 240 240 243 245 248 249 251 253 255 257 260 263 266 268 270 272 273 271 269 267 266 267 268 269 270 270 270 270 270 268 266 268 269 270 270 271 274 278 281 285 287 287 288 288 289 289 289 289 289 287 287 287 287 287 286 284 282 283 285 285 284 284 284 284 287 290 292 294 295 297 298
254 255 255 255 255 255 254 253 253 252 251 249 248 244 239 241 245 248 251 253 254 255 257 259 261 264 267 269 271 273 274 274 273 270 268 268 268 269 269 268 268 268 269 268 267 266 264 264 267 270 273 278 282 284 285 285 285 285 285 285 286 286 286 285 285 286 285 284 283 282 282 283 285 285 283 284 285 286 288 289 292 293 293 294 296
255 255 256 256 257 258 257 257 256 255 254 253 250 246 243 243 247 251 254 256 257 258 259 261 263 266 268 269 271 272 272 273 273 270 268 268 269 270 269 267 266 266 267 267 267 267 265 265 267 270 273 275 279 281 282 283 283 283 283 283 283 284 284 284 285 285 284 282 281 282 282 282 284 284 283 284 286 287 288 289 291 290 291 293 294
256 257 256 257 257 258 259 259 258 257 257 256 254 252 249 249 251 254 257 259 260 261 263 264 266 267 269 270 272 273 273 271 269 266 264 266 268 269 269 267 266 265 265 266 266 267 267 267 267 269 270 272 275 278 280 281 282 282 282 282 283 283 283 283 283 283 282 281 281 281 282 282 284 284 283 283 285 287 287 288 288 288 290 293 294
257 257 256 256 256 257 258 258 259 259 258 257 256 255 254 254 255 257 259 260 262 263 263 265 266 267 269 271 272 273 272 271 267 262 261 264 266 268 268 267 265 264 264 264 265 267 267 267 267 268 268 268 271 276 279 281 281 281 281 281 282 282 281 281 281 281 280 279 279 280 281 281 282 282 282 284 286 287 287 286 287 288 290 292 292
255 256 256 255 254 255 255 256 257 257 257 257 257 257 256 257 258 260 261 262 263 263 264 265 265 267 268 269 269 269 269 269 266 263 262 264 266 268 268 267 266 265 263 263 264 265 265 265 266 266 266 266 270 275 278 279 280 280 280 280 280 280 280 280 280 279 278 278 278 278 279 278 276 276 278 282 285 286 285 285 286 288 290 291 291
254 255 255 254 254 254 255 256 256 256 256 256 256 257 257 258 258 260 261 262 263 264 264 264 265 265 266 266 265 264 265 265 265 264 265 266 267 268 269 268 267 266 264 263 262 263 263 263 264 265 265 265 268 273 276 278 279 279 279 279 279 279 279 279 279 278 277 277 276 276 276 275 274 272 272 275 279 281 282 283 285 287 289 290 290
254 255 255 255 254 254 254 255 255 256 256 256 256 256 256 257 257 258 258 260 261 261 261 261 260 262 264 265 264 264 263 263 264 265 266 267 267 268 269 269 268 267 265 264 263 262 262 262 263 264 264 265 267 271 274 275 277 278 278 278 278 278 278 278 278 277 276 276 275 274 274 273 272 271 269 270 273 274 276 279 281 283 285 286 288
254 254 254 255 255 255 255 254 254 254 255 255 255 255 255 255 256 256 257 258 258 258 258 258 258 259 261 263 263 263 264 264 265 266 266 267 267 267 268 267 267 267 266 264 263 262 262 262 262 263 264 265 266 269 272 274 275 277 277 278 278 278 278 278 277 277 277 276 275 274 273 272 271 270 270 270 271 271 272 274 275 277 281 282 282
258 257 256 256 256 256 256 256 255 255 255 255 256 256 256 256 256 257 258 259 260 260 260 261 261 261 263 264 264 265 266 267 267 268 268 268 267 267 266 266 266 265 265 264 264 263 263 263 263 264 264 266 267 269 271 273 275 276 277 277 277 277 277 277 277 277 277 276 276 275 274 272 271 270 270 270 270 270 271 271 270 271 274 275 275
263 263 262 261 261 260 260 260 259 259 259 259 259 260 260 261 261 262 262 263 264 265 265 266 266 266 266 266 266 267 267 268 268 269 269 268 267 267 266 265 265 264 264 263 263 263 264 264 264 265 266 267 269 270 272 274 275 276 276 276 276 276 276 276 276 276 276 276 276 276 275 274 272 270 269 269 269 270 271 270 269 268 268 269 271
265 266 266 265 265 265 265 264 264 263 263 263 263 264 264 265 265 266 266 266 266 267 267 267 267 267 267 266 266 267 267 267 267 267 268 267 267 267 266 266 265 264 264 263 263 263 264 264 265 266 267 269 270 272 273 274 275 276 276 276 276 275 275 275 275 275 275 275 275 275 274 273 272 271 269 268 269 269 269 269 268 267 265 265 267
266 266 266 267 267 267 267 267 267 267 266 266 266 266 267 267 267 268 267 267 267 267 267 267 267 267 267 266 266 266 266 266 267 267 267 267 267 266 266 266 266 265 265 264 264 264 264 265 266 267 268 269 271 272 273 274 275 276 276 276 275 275 275 274 274 274 274 274 274 274 273 272 271 271 269 268 268 268 267 267 266 265 263 263 263
265 266 267 268 268 269 269 269 269 270 269 269 269 269 269 269 269 269 269 269 269 269 269 268 268 268 268 267 267 266 266 266 267 267 267 267 267 267 266 266 266 266 266 265 265 265 266 266 267 268 268 270 271 272 273 274 274 275 275 275 275 274 274 274 273 273 273 273 273 273 272 271 270 270 269 268 268 267 266 265 265 264 263 262 262
267 268 270 271 271 272 272 272 272 272 272 272 272 272 272 271 271 271 271 271 271 271 270 270 270 269 268 268 267 266 265 265 265 266 266 267 267 267 267 266 267 267 267 266 267 267 267 267 268 269 270 270 271 272 273 273 274 274 274 274 274 274 273 273 272 272 272 272 272 272 272 271 270 269 268 267 267 266 266 265 265 264 263 262 262
268 270 271 272 272 273 273 273 273 274 274 274 274 274 274 273 273 273 273 272 272 272 272 271 271 270 269 269 268 267 266 265 265 265 266 266 267 267 267 267 267 267 267 267 267 267 268 268 269 269 270 270 271 272 272 273 273 273 273 273 273 272 272 271 271 271 271 271 270 270 270 270 270 269 268 267 266 266 266 265 265 264 263 262 261
269 270 272 272 272 273 273 273 274 274 275 275 276 276 276 276 275 275 274 274 274 273 272 272 271 271 270 269 269 268 267 267 266 266 266 267 267 267 268 267 267 267 267 267 267 267 267 268 268 269 270 270 271 271 271 272 272 272 273 273 272 271 271 270 270 269 269 269 269 269 269 268 268 268 268 268 267 266 265 265 264 264 263 262 262
270 271 272 273 274 274 274 275 275 276 277 277 277 277 277 277 277 276 275 274 274 273 272 271 271 270 270 269 269 268 268 268 267 267 267 267 267 268 268 268 268 268 268 268 267 267 267 267 268 268 268 269 269 270 270 270 271 271 272 272 272 272 271 270 270 269 269 269 268 268 267 267 267 267 267 267 267 266 266 265 265 264 263 263 263
271 272 273 274 274 275 275 276 276 277 277 277 277 277 277 277 276 275 274 273 272 272 271 271 270 270 270 269 269 269 268 268 268 267 267 267 268 268 268 268 268 268 268 268 268 267 267 267 267 267 267 267 268 268 268 269 270 270 271 271 272 272 272 272 271 271 270 270 269 268 267 267 266 266 267 267 267 267 267 266 266 265 265 264 264
271 272 272 273 274 275 276 277 277 278 278 278 278 278 278 277 276 275 275 274 273 272 272 272 272 271 271 271 271 271 271 270 270 269 268 267 267 268 268 268 268 267 267 267 267 266 266 266 267 267 267 267 267 267 267 268 269 270 270 270 270 270 271 271 272 272 272 271 271 270 269 268 267 266 266 266 266 267 267 267 267 266 266 266 266
272 272 273 275 276 277 279 280 281 281 280 280 280 279 278 278 277 277 276 275 274 274 273 273 273 273 273 274 274 273 273 273 272 272 271 269 268 268 268 267 267 267 267 266 266 266 266 266 266 266 266 266 266 267 267 268 268 269 269 269 269 269 269 270 271 271 271 271 271 271 271 271 270 269 268 266 266 266 266 266 267 267 267 267 267
275 276 277 278 280 281 282 283 283 282 282 281 280 279 278 277 277 277 277 276 276 275 275 275 275 275 275 275 275 275 274 274 273 272 272 270 269 268 267 267 266 266 267 267 267 267 266 266 266 265 265 265 266 266 267 267 267 268 268 268 268 269 269 270 270 270 270 270 270 270 271 271 271 271 271 270 268 266 266 265 265 266 266 266 266
278 279 280 281 282 283 283 283 282 282 282 281 280 279 278 278 278 278 278 277 277 277 276 276 276 276 276 276 276 275 275 274 273 272 270 269 268 267 267 268 268 267 267 267 267 267 267 267 266 266 266 266 266 266 266 266 266 267 267 268 268 268 269 269 270 270 270 270 270 270 270 270 271 271 271 271 270 269 267 266 266 265 265 265 266
279 281 282 283 284 284 283 283 282 282 282 282 280 279 279 279 279 279 279 279 278 278 277 277 277 278 278 277 276 276 275 274 273 272 270 268 268 267 267 268 269 269 268 267 266 266 267 267 267 267 266 266 266 266 266 266 266 266 267 267 268 268 269 269 269 269 270 270 270 270 271 271 271 271 271 271 271 270 269 268 267 266 266 266 265
283 284 285 285 285 285 284 284 284 284 284 283 281 280 280 281 281 281 281 280 279 279 279 279 280 280 279 279 278 277 276 274 273 272 270 269 268 267 266 266 267 268 267 266 266 266 266 266 266 267 267 267 267 267 267 267 267 267 267 268 268 268 269 269 269 270 270 270 271 271 271 272 272 272 272 272 271 271 270 270 269 268 267 267 266
286 286 287 287 287 286 286 286 287 287 286 283 281 281 282 283 283 283 282 282 282 282 283 284 284 283 282 281 280 278 276 275 273 271 270 268 267 265 264 263 264 265 265 265 264 264 264 265 266 266 267 268 268 268 269 269 269 269 269 269 270 270 270 270 270 271 271 271 271 272 272 272 272 272 272 272 272 272 271 271 270 269 269 268 267
288 288 289 289 289 288 287 287 287 287 285 283 283 283 285 286 286 286 286 286 286 287 288 288 287 286 284 283 281 279 276 274 272 270 269 268 266 264 262 261 262 262 263 263 263 263 264 265 265 266 267 268 268 269 269 270 271 271 272 272 272 272 272 272 272 272 272 272 272 272 272 272 272 272 272 272 272 272 272 272 271 270 270 269 268
291 292 292 290 289 287 287 287 287 286 285 285 285 287 289 290 291 290 290 291 291 291 291 290 289 287 286 284 282 279 275 273 271 269 268 266 265 263 262 261 261 261 262 262 263 263 264 264 265 266 267 268 269 270 270 271 272 272 273 273 273 273 273 273 272 272 272 272 272 272 272 272 272 272 272 272 272 272 272 272 272 271 271 270 269
294 294 292 289 288 287 287 287 287 287 287 288 290 293 295 295 295 294 295 294 294 293 292 291 289 288 286 284 281 278 274 272 270 268 266 265 264 263 262 262 261 261 262 262 263 264 265 266 266 268 269 270 271 271 272 272 273 273 273 273 273 273 273 273 273 273 273 272 272 272 272 272 272 272 272 272 272 272 272 272 272 272 271 271 270
295 294 292 290 290 290 290 289 288 289 290 293 297 299 299 298 298 298 297 296 295 294 293 290 289 287 285 283 280 277 274 272 271 269 268 267 266 265 264 264 263 263 264 264 266 266 268 268 269 270 271 271 272 273 273 274 274 274 274 274 274 274 274 274 275 274 274 274 273 273 273 273 273 273 273 272 272 272 272 272 271 271 271 270 269
297 297 296 296 296 295 292 291 291 293 297 300 303 303 302 302 301 300 299 297 296 294 292 290 288 287 284 282 280 277 274 272 271 270 270 269 269 268 268 267 267 267 267 267 268 268 269 270 270 271 272 273 273 274 275 276 276 277 277 277 277 277 278 278 278 278 277 277 277 277 276 276 275 275 275 275 274 274 274 273 272 272 271 270 269
300 300 300 300 299 296 294 295 297 300 303 305 307 307 305 304 303 302 300 298 296 294 292 290 288 287 285 283 281 277 274 272 271 270 269 269 269 268 268 268 267 267 268 268 269 269 270 271 272 274 275 276 277 278 279 280 281 282 283 283 282 283 284 284 283 283 282 282 281 281 280 280 279 279 279 278 278 277 277 276 275 274 273 272 271
301 301 302 301 298 296 298 301 303 304 308 311 311 310 308 306 305 303 301 298 297 295 293 290 289 289 287 284 281 277 275 273 272 271 270 269 269 269 270 270 270 271 273 274 276 277 279 281 282 283 284 285 286 287 287 288 288 288 288 288 287 288 289 288 287 287 286 286 285 284 284 283 283 282 282 281 281 280 280 279 278 277 275 274 273
301 302 303 301 299 300 302 304 306 308 313 315 314 312 311 310 308 305 301 299 298 295 292 290 290 289 286 283 281 279 279 279 278 278 277 277 277 277 278 280 283 287 291 293 294 295 295 296 296 296 296 295 295 294 293 293 293 292 292 291 291 292 292 291 290 290 289 289 288 287 286 286 285 284 283 282 282 281 281 281 281 280 279 277 276
302 302 303 302 301 302 304 306 309 313 317 318 316 315 315 313 310 306 303 300 297 293 290 289 288 285 282 281 282 284 287 289 292 294 296 297 298 300 302 305 309 312 311 310 309 309 309 309 309 307 306 305 303 301 300 299 299 299 297 296 295 295 295 293 292 291 291 290 290 289 289 288 287 286 285 284 282 282 281 281 281 280 280 279 278
303 302 303 301 301 303 306 309 313 317 320 321 320 320 319 316 312 308 304 299 295 290 287 285 283 281 280 281 284 288 292 296 301 306 311 314 315 316 316 318 321 325 328 331 330 331 331 328 325 321 318 316 314 310 309 308 306 304 301 299 298 298 298 297 296 295 294 293 291 291 291 290 290 289 288 286 285 283 282 281 280 280 279 279 279
303 302 301 300 301 304 308 312 316 321 324 324 324 325 323 319 315 311 305 298 292 287 284 282 280 278 279 282 285 289 294 300 306 310 314 317 320 324 329 336 346 354 360 5 5 3 357 348 342 335 331 329 325 319 316 313 310 309 308 309 309 310 310 308 306 304 303 300 297 296 295 293 293 292 291 290 288 287 286 284 282 281 280 279 279
304 301 300 300 302 307 311 314 319 324 327 328 330 329 326 323 319 314 308 300 291 285 282 280 279 278 279 281 286 291 297 302 304 307 316 338 356 11 19 24 26 26 26 28 29 27 19 8 359 350 345 343 338 334 331 328 328 328 328 328 327 324 321 318 315 312 309 307 305 304 303 301 300 298 296 294 292 290 288 287 285 283 281 279 278
305 302 301 301 304 309 313 317 322 327 330 332 334 333 330 327 324 319 313 304 291 282 278 277 276 277 279 282 286 290 293 293 295 21 83 83 81 75 66 57 46 37 31 27 25 23 21 16 11 8 6 3 2 360 358 356 355 355 355 351 346 342 337 333 329 324 320 315 312 310 310 308 307 306 304 300 296 294 292 289 286 283 280 278 276
307 303 302 303 305 309 314 319 325 329 332 337 338 336 334 332 329 325 318 307 292 281 275 273 273 273 275 275 269 253 199 136 120 112 106 98 89 75 61 47 37 32 29 26 24 25 25 25 25 25 25 23 19 17 14 12 9 7 8 6 2 358 355 352 348 343 336 328 321 317 313 309 307 305 303 300 298 297 296 294 290 286 281 276 274
310 306 303 302 304 309 314 321 327 331 335 340 341 339 338 336 334 331 324 310 295 285 276 269 267 264 257 235 184 145 133 128 123 113 99 84 72 60 50 43 38 36 35 34 34 34 34 34 34 33 33 31 27 23 20 16 13 10 9 9 8 5 3 1 359 355 348 340 333 327 320 310 304 302 298 296 295 296 297 296 294 291 286 279 273
314 308 303 301 303 309 315 322 329 333 337 343 344 343 342 340 338 336 329 317 305 294 278 263 253 240 223 185 147 136 138 133 120 101 84 71 62 56 51 47 44 44 46 46 44 44 42 40 37 36 34 31 28 24 18 14 11 6 4 4 4 5 5 3 2 359 355 350 347 347 340 325 311 302 295 291 291 294 296 296 294 292 290 284 276
316 311 305 302 304 309 315 322 330 333 338 345 347 346 345 343 341 340 335 325 319 305 277 247 226 209 191 159 145 144 142 128 108 91 80 72 65 61 58 54 52 52 52 51 49 47 44 40 36 34 33 30 26 21 16 11 7 3 0 360 1 3 3 2 1 360 358 356 358 4 3 351 333 316 301 292 289 290 292 294 294 293 292 289 282
317 314 308 305 306 310 314 322 329 333 339 347 349 349 349 347 345 344 339 332 325 305 267 164 131 145 158 161 156 146 131 113 99 91 85 79 72 67 63 58 55 54 52 50 46 44 40 35 30 27 26 24 21 18 13 10 6 4 3 3 4 4 3 3 2 0 359 359 2 8 11 6 355 338 322 308 298 293 292 292 294 295 295 293 287
314 315 312 308 308 311 314 319 326 331 338 347 351 351 352 350 348 348 346 340 328 303 142 115 121 141 164 173 153 128 112 102 98 94 89 81 73 66 60 55 52 50 46 42 38 33 30 26 21 17 17 18 17 15 12 11 11 11 11 11 11 11 10 8 6 3 0 0 2 8 13 11 3 350 338 329 322 311 302 296 294 297 300 299 294
311 312 313 311 310 312 315 316 320 327 335 345 351 353 354 354 353 350 355 2 356 19 106 119 135 150 159 146 120 107 104 103 102 96 87 78 71 64 57 51 48 45 40 34 30 24 20 18 14 9 7 9 12 13 12 13 14 15 16 16 17 17 17 15 12 8 4 2 3 7 13 14 8 358 347 341 338 331 319 308 303 303 304 304 302
308 309 311 313 312 314 317 315 315 321 330 341 350 353 356 359 359 354 360 29 51 88 127 138 146 145 134 118 107 105 108 109 104 92 80 71 64 57 50 43 38 34 30 26 22 18 16 15 13 9 4 2 5 9 11 13 14 16 17 17 18 19 21 21 19 16 11 9 8 9 13 15 13 6 355 347 344 341 332 321 314 313 312 310 308
Height
10736 10736 10737 10738 10738 10740 10740 10741 10742 10742 10743 10744 10744 10744 10745 10746 10746 10747 10748 10748 10750 10750 10751 10752 10752 10752 10753 10753 10754 10754 10755 10756 10756 10758 10758 10759 10759 10759 10760 10760 10760 10760 10760 10760 10760 10758 10758 10758 10757 10756 10756 10756 10756 10755 10755 10754 10754 10754 10754 10754 10754 10753 10752 10752 10751 10750 10749 10748 10748 10747 10746 10746 10746 10745 10744 10744 10742 10742 10741 10740 10738 10738 10736 10735 10734
10734 10735 10736 10736 10736 10738 10738 10738 10739 10740 10740 10741 10742 10742 10742 10742 10744 10744 10745 10746 10746 10747 10748 10748 10749 10750 10750 10750 10751 10752 10752 10753 10754 10754 10755 10756 10756 10756 10757 10758 10756 10755 10754 10755 10754 10754 10754 10754 10753 10752 10752 10752 10752 10752 10752 10751 10750 10750 10750 10750 10750 10749 10748 10748 10747 10746 10745 10744 10744 10744 10744 10742 10742 10742 10741 10740 10739 10738 10738 10736 10736 10734 10734 10733 10732
10731 10732 10733 10734 10734 10735 10736 10736 10736 10736 10738 10738 10738 10739 10740 10740 10740 10741 10742 10742 10743 10744 10744 10745 10746 10747 10748 10748 10748 10749 10750 10750 10750 10750 10751 10752 10752 10752 10752 10753 10751 10750 10750 10751 10750 10750 10750 10750 10748 10749 10749 10749 10748 10748 10748 10748 10746 10746 10746 10746 10746 10745 10744 10744 10743 10742 10741 10741 10742 10741 10740 10739 10738 10738 10737 10736 10736 10734 10734 10734 10732 10732 10731 10730 10730
10728 10729 10730 10732 10732 10732 10733 10733 10734 10734 10734 10735 10736 10736 10736 10737 10738 10738 10738 10740 10740 10741 10742 10742 10743 10744 10744 10746 10746 10746 10746 10746 10746 10747 10747 10747 10746 10746 10748 10748 10747 10746 10747 10748 10747 10746 10746 10746 10745 10746 10745 10744 10744 10744 10744 10744 10743 10742 10742 10742 10742 10741 10740 10740 10739 10738 10738 10738 10738 10738 10736 10734 10734 10734 10733 10732 10732 10731 10730 10730 10730 10729 10728 10728 10726
10726 10726 10728 10728 10729 10730 10730 10730 10731 10732 10732 10732 10733 10734 10734 10734 10734 10735 10736 10736 10736 10738 10738 10738 10740 10740 10742 10742 10742 10742 10742 10742 10743 10743 10742 10742 10742 10742 10743 10744 10744 10744 10743 10744 10744 10743 10742 10742 10741 10741 10740 10740 10740 10740 10740 10740 10739 10738 10738 10738 10738 10738 10737 10736 10735 10734 10734 10735 10734 10733 10732 10730 10730 10730 10730 10729 10728 10728 10727 10727 10726 10726 10725 10724 10724
10722 10724 10724 10726 10726 10726 10727 10728 10728 10728 10729 10730 10730 10730 10730 10730 10731 10732 10732 10732 10733 10734 10734 10734 10736 10736 10738 10738 10738 10738 10738 10738 10738 10738 10738 10738 10738 10738 10738 10738 10739 10738 10738 10738 10739 10739 10738 10738 10737 10736 10736 10736 10736 10736 10736 10736 10736 10735 10734 10733 10734 10734 10733 10732 10730 10731 10731 10731 10730 10728 10728 10727 10726 10726 10726 10726 10724 10724 10724 10723 10722 10722 10722 10721 10720
10719 10720 10721 10722 10722 10722 10723 10724 10724 10724 10725 10726 10726 10727 10728 10728 10728 10728 10728 10728 10728 10729 10730 10730 10732 10732 10733 10732 10732 10733 10734 10734 10734 10734 10732 10732 10733 10732 10732 10734 10734 10734 10734 10734 10734 10734 10734 10732 10732 10732 10732 10732 10731 10732 10732 10731 10731 10730 10730 10729 10729 10729 10728 10728 10727 10727 10727 10726 10725 10724 10724 10723 10722 10723 10723 10722 10721 10720 10720 10719 10718 10718 10718 10717 10717
10716 10716 10718 10718 10718 10718 10718 10720 10720 10720 10721 10722 10722 10723 10724 10724 10724 10724 10724 10724 10724 10724 10725 10726 10728 10728 10728 10727 10726 10727 10728 10728 10728 10728 10727 10728 10728 10728 10728 10729 10729 10729 10728 10728 10728 10728 10728 10728 10728 10728 10727 10726 10726 10726 10726 10726 10726 10726 10724 10724 10724 10724 10723 10722 10722 10723 10722 10722 10720 10720 10720 10719 10720 10720 10719 10718 10717 10716 10716 10715 10714 10714 10714 10713 10713
10712 10712 10714 10714 10714 10714 10714 10715 10716 10716 10716 10717 10718 10718 10720 10720 10720 10720 10720 10720 10720 10720 10720 10722 10724 10725 10724 10722 10722 10722 10722 10722 10722 10722 10722 10722 10722 10724 10724 10724 10724 10724 10723 10723 10722 10722 10722 10722 10723 10722 10722 10721 10720 10720 10721 10720 10720 10720 10720 10720 10719 10718 10718 10718 10718 10718 10718 10718 10716 10716 10715 10716 10716 10716 10714 10714 10713 10712 10711 10710 10710 10710 10710 10709 10708
10708 10708 10710 10710 10710 10710 10710 10710 10711 10712 10712 10713 10714 10714 10714 10715 10716 10716 10716 10715 10714 10715 10716 10718 10720 10720 10718 10718 10717 10716 10717 10717 10717 10717 10716 10716 10718 10718 10719 10718 10718 10718 10718 10718 10717 10716 10716 10716 10716 10716 10716 10716 10714 10714 10714 10714 10714 10714 10714 10714 10714 10714 10712 10712 10712 10712 10712 10712 10712 10711 10711 10712 10712 10712 10711 10710 10709 10708 10707 10706 10706 10706 10706 10705 10704
10704 10704 10705 10706 10706 10706 10706 10706 10706 10706 10707 10708 10709 10710 10710 10710 10710 10710 10710 10710 10709 10710 10710 10712 10714 10714 10712 10712 10712 10712 10712 10712 10712 10712 10712 10711 10711 10712 10713 10713 10712 10712 10712 10712 10711 10710 10710 10710 10710 10710 10710 10709 10708 10708 10708 10708 10708 10708 10708 10709 10708 10708 10707 10706 10706 10706 10706 10706 10707 10706 10706 10706 10708 10708 10708 10707 10706 10704 10703 10702 10702 10702 10702 10701 10700
10699 10700 10700 10700 10701 10702 10702 10702 10702 10702 10702 10703 10704 10704 10705 10705 10705 10705 10705 10704 10704 10704 10704 10706 10708 10708 10706 10705 10706 10706 10706 10706 10706 10706 10706 10705 10704 10705 10706 10706 10706 10706 10705 10705 10704 10704 10704 10704 10703 10702 10702 10702 10702 10701 10701 10700 10700 10700 10701 10702 10702 10701 10701 10700 10700 10700 10700 10700 10701 10701 10700 10701 10702 10702 10702 10702 10702 10702 10700 10699 10698 10697 10698 10698 10697
10695 10696 10696 10696 10696 10697 10698 10698 10698 10698 10698 10698 10698 10700 10700 10700 10700 10700 10700 10699 10698 10698 10698 10699 10702 10702 10700 10698 10698 10698 10699 10700 10700 10700 10698 10698 10698 10698 10698 10698 10699 10698 10698 10698 10698 10698 10697 10696 10696 10695 10694 10694 10694 10694 10694 10694 10694 10694 10694 10694 10694 10694 10694 10693 10693 10693 10693 10694 10694 10694 10695 10695 10696 10696 10696 10696 10697 10697 10696 10696 10694 10693 10694 10694 10694
10690 10691 10692 10692 10692 10692 10692 10693 10694 10694 10694 10693 10694 10694 10695 10695 10696 10696 10695 10694 10693 10692 10692 10693 10695 10696 10695 10692 10692 10692 10691 10691 10692 10692 10691 10690 10690 10690 10690 10690 10691 10691 10690 10690 10690 10690 10690 10689 10688 10688 10688 10687 10687 10687 10687 10686 10686 10686 10686 10686 10686 10686 10686 10686 10686 10686 10686 10686 10686 10688 10688 10689 10690 10690 10690 10690 10690 10690 10690 10690 10690 10690 10690 10690 10690
10686 10686 10686 10687 10687 10687 10688 10688 10688 10688 10688 10688 10688 10689 10690 10690 10690 10690 10690 10688 10688 10686 10686 10686 10688 10689 10690 10687 10684 10684 10684 10682 10682 10682 10682 10682 10682 10681 10682 10682 10682 10682 10682 10682 10682 10682 10682 10681 10680 10680 10680 10680 10679 10678 10678 10678 10679 10680 10679 10678 10678 10678 10678 10678 10678 10678 10678 10679 10679 10680 10682 10682 10682 10682 10682 10682 10683 10684 10684 10684 10684 10685 10685 10685 10685
10681 10682 10682 10682 10682 10682 10682 10682 10682 10682 10682 10683 10683 10683 10683 10684 10684 10683 10682 10682 10681 10680 10680 10679 10679 10680 10682 10680 10678 10676 10675 10674 10674 10674 10673 10673 10673 10672 10672 10673 10674 10674 10674 10674 10674 10674 10674 10673 10672 10672 10672 10672 10671 10670 10670 10670 10670 10672 10671 10670 10670 10670 10670 10670 10670 10670 10671 10672 10672 10673 10674 10674 10674 10674 10675 10675 10676 10677 10678 10678 10678 10679 10680 10680 10680
10676 10676 10676 10677 10677 10677 10677 10676 10676 10676 10676 10676 10676 10676 10676 10676 10676 10675 10674 10674 10673 10672 10671 10671 10670 10671 10672 10672 10672 10670 10666 10665 10665 10664 10664 10664 10664 10664 10664 10664 10664 10665 10665 10665 10664 10664 10664 10664 10664 10664 10664 10663 10662 10662 10662 10662 10662 10664 10662 10662 10662 10662 10662 10663 10663 10663 10664 10664 10665 10666 10667 10668 10667 10667 10668 10668 10670 10670 10670 10671 10672 10673 10673 10674 10674
10672 10672 10672 10672 10672 10672 10672 10670 10670 10670 10670 10670 10670 10670 10669 10669 10668 10668 10666 10666 10664 10664 10662 10662 10662 10662 10663 10663 10664 10662 10660 10657 10655 10654 10654 10654 10654 10654 10655 10654 10654 10655 10656 10656 10656 10656 10656 10655 10654 10654 10654 10654 10654 10654 10654 10654 10654 10655 10654 10653 10654 10654 10654 10655 10656 10656 10656 10656 10658 10659 10660 10660 10660 10660 10660 10661 10662 10664 10664 10664 10666 10666 10666 10667 10667
10668 10668 10668 10667 10667 10666 10666 10664 10664 10664 10663 10663 10662 10662 10662 10661 10660 10660 10658 10657 10656 10655 10654 10653 10653 10653 10654 10654 10654 10654 10652 10650 10647 10646 10645 10644 10644 10645 10646 10645 10645 10646 10646 10646 10646 10646 10646 10646 10646 10646 10646 10646 10646 10646 10646 10645 10646 10646 10645 10644 10646 10646 10646 10646 10648 10648 10648 10649 10650 10651 10652 10652 10652 10652 10652 10654 10654 10656 10656 10657 10658 10659 10660 10660 10660
10664 10663 10662 10662 10662 10661 10660 10659 10658 10658 10657 10656 10656 10655 10654 10654 10652 10652 10650 10649 10648 10646 10644 10644 10642 10642 10642 10643 10643 10642 10642 10641 10640 10638 10636 10634 10634 10636 10636 10635 10635 10636 10636 10637 10637 10636 10636 10636 10636 10636 10636 10638 10638 10638 10638 10637 10637 10637 10636 10636 10638 10638 10638 10638 10639 10640 10640 10641 10642 10643 10643 10644 10644 10644 10644 10646 10647 10648 10649 10650 10650 10652 10652 10653 10654
10658 10658 10658 10656 10656 10655 10654 10653 10652 10652 10651 10650 10648 10648 10646 10646 10644 10644 10642 10641 10640 10638 10636 10634 10633 10632 10632 10632 10632 10632 10630 10630 10631 10630 10628 10626 10624 10625 10625 10624 10624 10625 10626 10626 10627 10627 10627 10626 10626 10627 10628 10628 10629 10628 10628 10628 10628 10628 10628 10628 10629 10630 10630 10630 10630 10632 10632 10632 10634 10634 10635 10635 10636 10636 10636 10637 10638 10640 10641 10642 10643 10644 10644 10646 10646
10653 10654 10652 10650 10650 10648 10648 10646 10646 10646 10644 10643 10641 10640 10639 10638 10636 10634 10634 10632 10630 10628 10627 10625 10624 10622 10622 10622 10620 10620 10620 10620 10620 10622 10620 10616 10615 10615 10614 10612 10612 10614 10614 10615 10616 10617 10617 10618 10618 10618 10620 10620 10620 10620 10619 10618 10618 10619 10619 10619 10620 10620 10621 10621 10622 10623 10624 10624 10625 10626 10626 10626 10628 10628 10628 10628 10630 10631 10632 10634 10634 10636 10636 10638 10638
10648 10648 10646 10644 10643 10642 10641 10640 10640 10639 10637 10635 10634 10632 10631 10629 10628 10626 10624 10622 10620 10619 10617 10615 10614 10612 10612 10612 10610 10610 10609 10609 10610 10612 10611 10608 10606 10606 10604 10602 10603 10603 10603 10604 10605 10606 10606 10607 10608 10610 10610 10610 10610 10610 10610 10610 10610 10610 10611 10611 10610 10611 10612 10612 10612 10614 10614 10614 10616 10616 10618 10618 10618 10620 10620 10620 10620 10622 10623 10624 10626 10626 10628 10629 10630
10642 10641 10639 10638 10636 10636 10634 10634 10633 10632 10629 10627 10626 10624 10622 10620 10618 10616 10615 10614 10612 10610 10608 10606 10604 10603 10602 10602 10601 10600 10599 10599 10599 10600 10601 10600 10598 10598 10594 10592 10594 10592 10592 10592 10594 10596 10596 10596 10598 10599 10600 10600 10600 10601 10601 10602 10602 10602 10602 10602 10602 10602 10602 10603 10604 10604 10606 10606 10606 10606 10607 10608 10609 10610 10611 10612 10612 10612 10613 10614 10616 10616 10618 10620 10620
10636 10634 10632 10631 10630 10629 10628 10626 10626 10623 10620 10619 10617 10616 10614 10612 10610 10608 10606 10605 10604 10602 10600 10598 10596 10595 10594 10593 10592 10591 10590 10590 10590 10589 10590 10589 10590 10590 10585 10582 10584 10582 10582 10582 10583 10585 10586 10586 10588 10588 10590 10590 10591 10592 10592 10593 10593 10593 10593 10593 10593 10594 10594 10594 10594 10595 10596 10596 10596 10597 10598 10598 10598 10600 10601 10602 10603 10604 10604 10604 10605 10606 10608 10610 10610
10628 10626 10625 10624 10624 10622 10620 10619 10618 10614 10612 10611 10609 10608 10606 10604 10602 10600 10598 10597 10596 10594 10592 10590 10588 10587 10586 10585 10584 10582 10581 10581 10581 10581 10581 10578 10580 10580 10576 10573 10574 10574 10574 10574 10574 10575 10576 10576 10578 10578 10580 10580 10582 10582 10583 10584 10584 10583 10583 10583 10584 10584 10584 10585 10586 10586 10586 10587 10588 10588 10588 10588 10590 10590 10590 10592 10593 10594 10594 10595 10596 10597 10598 10599 10600
10622 10620 10618 10618 10616 10614 10613 10612 10609 10606 10605 10604 10602 10600 10598 10596 10594 10592 10591 10589 10588 10586 10584 10582 10580 10580 10578 10577 10576 10574 10573 10572 10572 10573 10573 10570 10570 10572 10568 10565 10566 10567 10567 10566 10566 10566 10566 10568 10568 10569 10570 10571 10572 10573 10574 10574 10574 10573 10574 10574 10574 10574 10575 10576 10576 10576 10577 10578 10578 10578 10579 10580 10580 10581 10582 10582 10582 10583 10584 10585 10586 10587 10588 10590 10590
10615 10613 10612 10611 10610 10608 10606 10604 10602 10600 10598 10596 10594 10592 10590 10588 10586 10585 10584 10582 10580 10578 10576 10574 10573 10572 10570 10569 10568 10566 10565 10564 10564 10564 10564 10563 10562 10563 10562 10558 10558 10560 10560 10560 10560 10559 10559 10560 10560 10560 10562 10562 10563 10564 10564 10564 10564 10564 10564 10565 10566 10566 10566 10566 10567 10567 10568 10568 10569 10569 10570 10570 10572 10572 10572 10572 10573 10573 10574 10574 10576 10577 10578 10580 10580
10609 10607 10606 10605 10604 10602 10600 10598 10596 10594 10592 10590 10587 10584 10582 10580 10580 10578 10576 10574 10572 10570 10568 10567 10566 10564 10562 10561 10560 10559 10558 10556 10556 10556 10556 10556 10556 10556 10556 10554 10552 10552 10553 10554 10554 10553 10553 10552 10552 10553 10554 10555 10556 10556 10556 10556 10556 10556 10556 10556 10557 10557 10557 10557 10558 10558 10558 10559 10560 10560 10561 10562 10562 10562 10562 10562 10563 10564 10564 10564 10566 10566 10568 10569 10570
10604 10602 10601 10600 10598 10596 10594 10592 10590 10588 10586 10584 10580 10578 10576 10574 10573 10572 10569 10566 10564 10562 10561 10560 10558 10556 10555 10554 10553 10552 10551 10549 10548 10548 10548 10548 10549 10550 10550 10548 10548 10548 10548 10548 10548 10548 10548 10548 10548 10548 10548 10548 10548 10548 10548 10548 10548 10548 10548 10548 10548 10548 10548 10548 10548 10549 10549 10550 10550 10552 10552 10552 10552 10552 10552 10552 10552 10553 10554 10554 10556 10556 10557 10558 10560
10599 10597 10596 10594 10592 10589 10587 10585 10583 10582 10580 10577 10575 10572 10570 10569 10567 10565 10562 10560 10557 10556 10554 10553 10552 10550 10548 10547 10546 10546 10544 10542 10542 10542 10542 10542 10542 10543 10543 10543 10542 10542 10542 10543 10542 10542 10542 10542 10542 10542 10542 10542 10542 10542 10542 10542 10541 10542 10542 10542 10542 10541 10541 10541 10541 10541 10541 10542 10542 10543 10543 10543 10543 10542 10542 10542 10542 10543 10544 10544 10545 10546 10547 10548 10549
10594 10592 10590 10588 10585 10582 10581 10580 10578 10576 10574 10572 10570 10568 10566 10564 10561 10558 10556 10553 10551 10550 10548 10546 10545 10544 10542 10542 10540 10540 10538 10538 10536 10536 10537 10536 10536 10536 10537 10537 10538 10538 10538 10538 10538 10538 10538 10538 10538 10537 10537 10537 10537 10537 10536 10536 10536 10536 10536 10536 10535 10534 10534 10534 10534 10534 10534 10534 10534 10534 10534 10534 10534 10534 10534 10534 10534 10534 10534 10534 10536 10536 10537 10538 10539
10588 10586 10584 10581 10579 10577 10576 10574 10572 10570 10568 10566 10565 10563 10560 10558 10555 10552 10550 10548 10546 10544 10543 10542 10540 10538 10538 10536 10536 10535 10534 10533 10532 10532 10532 10532 10532 10532 10532 10532 10532 10533 10533 10533 10533 10532 10532 10533 10533 10532 10532 10532 10532 10532 10531 10531 10531 10530 10530 10530 10529 10528 10528 10527 10527 10527 10527 10527 10526 10526 10527 10527 10526 10526 10526 10526 10526 10526 10526 10526 10527 10528 10528 10529 10530
10582 10580 10578 10576 10574 10572 10570 10569 10568 10566 10564 10562 10560 10558 10556 10552 10550 10548 10545 10542 10540 10540 10538 10536 10536 10534 10534 10532 10532 10531 10530 10530 10528 10528 10528 10527 10527 10526 10527 10527 10528 10528 10528 10528 10528 10528 10528 10528 10528 10528 10528 10528 10527 10526 10526 10526 10526 10525 10524 10524 10524 10522 10522 10522 10522 10521 10520 10520 10520 10520 10520 10520 10520 10518 10518 10518 10518 10519 10519 10519 10520 10520 10520 10521 10522
10576 10574 10573 10571 10569 10568 10566 10565 10564 10562 10560 10558 10556 10554 10550 10548 10546 10542 10540 10538 10536 10535 10534 10532 10532 10532 10530 10529 10528 10528 10527 10526 10525 10524 10524 10523 10523 10522 10523 10523 10524 10524 10524 10524 10524 10524 10524 10524 10524 10524 10523 10523 10522 10522 10522 10521 10520 10520 10520 10519 10518 10517 10517 10517 10516 10515 10514 10514 10514 10514 10514 10513 10513 10512 10512 10512 10512 10512 10512 10512 10512 10512 10513 10514 10514
10572 10570 10568 10566 10565 10564 10563 10562 10560 10558 10556 10554 10552 10550 10546 10544 10541 10538 10536 10534 10532 10532 10530 10529 10528 10528 10527 10526 10526 10525 10524 10523 10522 10522 10520 10520 10520 10520 10520 10520 10520 10520 10520 10520 10520 10520 10520 10520 10520 10520 10520 10520 10519 10518 10518 10517 10516 10516 10516 10514 10514 10513 10512 10512 10511 10510 10509 10508 10508 10508 10508 10507 10507 10506 10506 10505 10506 10506 10506 10506 10506 10506 10506 10506 10506
10568 10566 10564 10563 10562 10561 10560 10558 10556 10554 10552 10550 10548 10545 10542 10540 10537 10534 10532 10530 10529 10528 10527 10526 10526 10525 10524 10524 10523 10522 10522 10520 10520 10518 10518 10518 10517 10516 10517 10517 10517 10518 10518 10518 10517 10517 10517 10517 10517 10516 10516 10516 10516 10515 10514 10514 10513 10512 10512 10510 10510 10509 10508 10508 10506 10505 10504 10504 10503 10502 10502 10502 10502 10501 10500 10500 10500 10500 10500 10500 10500 10500 10500 10500 10500
10564 10562 10561 10560 10558 10558 10557 10556 10554 10552 10549 10547 10544 10542 10538 10536 10533 10530 10528 10527 10526 10525 10524 10524 10523 10522 10522 10522 10521 10520 10519 10518 10518 10516 10516 10516 10515 10515 10515 10515 10515 10516 10515 10515 10514 10514 10514 10514 10514 10514 10514 10513 10513 10512 10512 10511 10510 10510 10508 10507 10506 10506 10506 10504 10502 10502 10500 10500 10498 10498 10498 10497 10497 10496 10496 10495 10494 10494 10494 10494 10494 10495 10495 10495 10495
10560 10559 10558 10556 10556 10554 10554 10552 10550 10548 10546 10544 10540 10538 10535 10532 10530 10528 10526 10524 10523 10522 10522 10522 10521 10521 10520 10520 10519 10518 10517 10516 10516 10516 10515 10514 10514 10514 10513 10513 10514 10514 10514 10513 10513 10513 10512 10512 10512 10512 10512 10511 10510 10510 10510 10509 10508 10507 10506 10505 10504 10504 10503 10502 10500 10499 10498 10496 10496 10494 10494 10494 10493 10492 10492 10490 10490 10490 10490 10490 10490 10490 10490 10490 10490
10557 10556 10554 10553 10552 10552 10551 10550 10548 10545 10543 10540 10538 10534 10532 10529 10527 10525 10524 10522 10521 10520 10520 10520 10519 10519 10518 10518 10517 10516 10516 10515 10514 10514 10514 10513 10512 10512 10512 10512 10512 10512 10512 10512 10512 10512 10512 10511 10510 10510 10510 10510 10509 10508 10508 10508 10506 10506 10504 10503 10502 10502 10501 10500 10498 10496 10496 10494 10492 10492 10491 10490 10490 10490 10488 10488 10486 10486 10486 10486 10486 10486 10486 10486 10486
10554 10552 10552 10550 10550 10548 10548 10546 10544 10542 10540 10538 10534 10532 10529 10526 10524 10523 10521 10520 10519 10518 10518 10518 10518 10517 10516 10516 10516 10515 10514 10514 10514 10513 10512 10512 10512 10512 10511 10510 10510 10511 10511 10512 10511 10511 10511 10510 10510 10510 10509 10509 10508 10508 10507 10506 10506 10504 10503 10502 10500 10500 10498 10498 10496 10494 10493 10492 10490 10489 10488 10488 10488 10486 10486 10484 10483 10482 10482 10482 10482 10482 10482 10483 10483
10550 10550 10548 10548 10546 10546 10544 10543 10541 10539 10537 10534 10532 10528 10526 10524 10522 10520 10520 10518 10517 10516 10516 10516 10516 10516 10515 10514 10514 10514 10514 10513 10512 10512 10512 10512 10512 10511 10510 10510 10510 10510 10510 10510 10511 10511 10510 10510 10510 10509 10508 10508 10507 10506 10506 10505 10504 10504 10502 10500 10500 10498 10497 10496 10494 10492 10490 10489 10488 10486 10486 10485 10484 10484 10483 10482 10480 10480 10479 10479 10479 10479 10480 10480 10480
10548 10547 10546 10544 10544 10543 10542 10540 10538 10536 10534 10532 10529 10526 10524 10522 10520 10519 10518 10516 10516 10515 10514 10514 10514 10514 10514 10513 10513 10512 10512 10512 10512 10512 10512 10512 10512 10512 10511 10510 10510 10510 10510 10510 10510 10510 10510 10510 10508 10508 10508 10506 10506 10504 10504 10503 10502 10502 10501 10500 10498 10497 10496 10494 10492 10490 10488 10487 10486 10484 10484 10482 10482 10482 10480 10479 10478 10477 10476 10476 10476 10476 10476 10477 10477
10545 10544 10543 10542 10541 10540 10540 10538 10536 10534 10532 10530 10527 10524 10522 10520 10518 10518 10516 10515 10514 10514 10514 10514 10513 10512 10512 10512 10512 10512 10512 10512 10512 10512 10512 10512 10512 10512 10511 10510 10510 10510 10509 10509 10508 10508 10508 10508 10508 10507 10506 10506 10504 10504 10502 10502 10501 10500 10500 10498 10497 10496 10494 10492 10491 10489 10487 10486 10484 10483 10482 10481 10480 10480 10478 10477 10476 10475 10474 10474 10474 10474 10474 10474 10475
10542 10542 10540 10540 10538 10538 10537 10536 10534 10532 10530 10528 10525 10522 10520 10519 10518 10516 10515 10514 10514 10513 10512 10512 10512 10512 10512 10512 10512 10512 10512 10512 10512 10512 10512 10512 10512 10511 10510 10510 10510 10510 10509 10508 10508 10508 10508 10508 10507 10506 10506 10505 10504 10503 10502 10501 10500 10499 10498 10498 10496 10495 10494 10492 10490 10488 10486 10484 10483 10482 10482 10480 10478 10478 10476 10475 10474 10474 10474 10472 10472 10472 10472 10472 10473
10540 10540 10538 10537 10536 10536 10534 10533 10532 10530 10528 10526 10524 10521 10520 10518 10516 10515 10514 10514 10513 10512 10512 10512 10512 10512 10512 10512 10512 10512 10512 10512 10512 10512 10512 10512 10512 10511 10510 10510 10510 10510 10509 10509 10508 10508 10508 10508 10507 10506 10506 10505 10504 10503 10502 10500 10500 10498 10498 10496 10496 10494 10492 10490 10489 10487 10486 10484 10482 10482 10480 10479 10478 10476 10475 10474 10472 10472 10472 10472 10471 10470 10470 10470 10472
10539 10538 10536 10535 10534 10532 10532 10531 10530 10528 10526 10524 10522 10520 10518 10517 10516 10514 10514 10513 10512 10512 10512 10512 10512 10512 10512 10512 10512 10512 10512 10512 10512 10512 10512 10512 10512 10512 10512 10512 10511 10510 10510 10510 10510 10509 10508 10508 10508 10507 10506 10506 10504 10504 10502 10501 10500 10498 10496 10496 10494 10493 10492 10490 10488 10486 10484 10482 10482 10480 10480 10478 10476 10475 10474 10472 10472 10472 10471 10470 10470 10469 10469 10470 10470
10537 10536 10534 10533 10532 10530 10530 10528 10528 10526 10525 10523 10521 10520 10518 10516 10515 10514 10513 10513 10512 10512 10512 10512 10512 10512 10513 10512 10512 10512 10512 10512 10512 10512 10512 10512 10512 10512 10512 10512 10512 10512 10511 10511 10510 10510 10510 10509 10508 10508 10507 10506 10506 10504 10502 10501 10500 10498 10496 10494 10493 10492 10490 10489 10487 10485 10483 10482 10480 10480 10478 10477 10475 10474 10472 10472 10471 10470 10470 10470 10468 10468 10468 10468 10468
10535 10534 10532 10532 10530 10528 10528 10527 10526 10526 10524 10522 10520 10519 10518 10516 10514 10514 10513 10512 10512 10512 10512 10512 10512 10513 10514 10514 10514 10512 10512 10512 10512 10513 10513 10514 10513 10513 10513 10513 10512 10512 10512 10512 10512 10511 10510 10510 10509 10508 10508 10506 10506 10504 10503 10502 10500 10498 10496 10494 10493 10492 10490 10488 10486 10484 10482 10480 10479 10478 10478 10476 10474 10472 10471 10470 10470 10470 10469 10468 10468 10467 10467 10467 10468
10534 10532 10531 10530 10528 10527 10526 10525 10524 10524 10523 10522 10520 10518 10517 10516 10514 10514 10513 10512 10513 10513 10512 10512 10513 10514 10514 10514 10514 10514 10513 10514 10514 10514 10514 10514 10514 10514 10514 10514 10514 10514 10513 10512 10512 10512 10512 10510 10510 10508 10508 10507 10506 10504 10504 10502 10500 10498 10496 10495 10493 10492 10490 10488 10486 10484 10482 10480 10479 10478 10477 10476 10474 10472 10470 10470 10470 10469 10468 10468 10466 10466 10466 10466 10466
10532 10530 10529 10528 10526 10526 10524 10524 10523 10522 10522 10521 10520 10518 10517 10516 10515 10514 10514 10513 10513 10513 10513 10513 10514 10514 10514 10515 10514 10514 10514 10514 10514 10514 10514 10514 10514 10514 10514 10514 10514 10514 10514 10513 10513 10512 10512 10511 10510 10509 10508 10507 10506 10505 10504 10502 10500 10499 10497 10495 10494 10492 10490 10488 10486 10484 10482 10480 10479 10478 10476 10476 10474 10472 10470 10469 10468 10468 10468 10466 10466 10466 10466 10465 10465